Terminal Aerodrome Forecast
Issued by NWS

Home | Current Version | Previous Version | Graphics & Text | Print | Product List | Glossary On
Versions: 1 2 3 4 5 6 7 8 9 10 11 12 13 14 15 16
171
FTUS42 KMHX 151127
TAFPGV
TAF
KPGV 151127Z 1512/1612 VRB03KT P6SM SCT030 OVC100
     FM151400 03005KT P6SM BKN025
     FM151800 04007KT P6SM SCT020 BKN040
     FM152300 05005KT P6SM SCT020 BKN040
      AMD LTD TO CLD VIS AND WIND=

USA.gov is the U.S. government's official web portal to all federal, state and local government web resources and services.